Regional Weather Roundup
Issued by NWS

Home | Current Version | Previous Version | Graphics & Text | Print | Product List | Glossary On
Versions: 1 2 3 4 5 6 7 8 9 10 11 12 13 14 15 16 17 18 19 20 21 22 23 24 25 26 27 28 29 30 31 32 33 34 35 36 37 38 39 40 41 42 43 44 45 46 47 48 49 50
000
ASUS45 KPSR 010610
RWRAZ

ARIZONA HOURLY REGIONAL WEATHER ROUNDUP
NATIONAL WEATHER SERVICE PHOENIX AZ
1100 PM MST MON AUG 31 2015

NOTE: FAIR INDICATES FEW OR NO CLOUDS BELOW 12,000 FEET WITH NO
SIGNIFICANT WEATHER AND/OR OBSTRUCTIONS TO VISIBILITY.

AZZ001>003-036-010700-
NORTHWEST ARIZONA

CITY           SKY/WX    TMP DP  RH WIND       PRES   REMARKS
BULLHEAD CITY  CLEAR     97  48  19 S5        29.73S
KINGMAN        CLEAR     80  48  32 S10       29.97S
6HR MIN TEMP:  80; 6HR MAX TEMP:  95;

$$

AZZ004>008-015-016-018-010700-
NORTH CENTRAL ARIZONA

CITY           SKY/WX    TMP DP  RH WIND       PRES   REMARKS
GRAND CANYON   PTCLDY    57  52  83 CALM        N/A
6HR MIN TEMP:  57; 6HR MAX TEMP:  73;

WILLIAMS       PTCLDY    61  48  63 SE12      30.32R
PRESCOTT       PTCLDY    74  55  51 S9        30.15R
6HR MIN TEMP:  73; 6HR MAX TEMP:  86;

FLAGSTAFF      CLEAR     54  51  90 CALM      30.31R
6HR MIN TEMP:  54; 6HR MAX TEMP:  66; 6HR PCP: TRACE;

PAYSON         CLOUDY    68  57  68 SW8       30.25R
PAGE           PTCLDY    74  54  49 CALM      30.08R
6HR MIN TEMP:  74; 6HR MAX TEMP:  86;

$$

AZZ009>014-017-010700-
NORTHEAST ARIZONA

CITY           SKY/WX    TMP DP  RH WIND       PRES   REMARKS
WINSLOW        CLOUDY    64  57  78 SE8       30.17R
6HR MIN TEMP:  63; 6HR MAX TEMP:  68; 6HR PCP: TRACE;

SAINT JOHNS    CLOUDY    64  55  72 S8        30.23F
6HR MIN TEMP:  64; 6HR MAX TEMP:  75; 6HR PCP: TRACE;

WINDOW ROCK    MOCLDY    61  50  67 CALM      30.30F
6HR MIN TEMP:  60; 6HR MAX TEMP:  80;

SHOW LOW       CLOUDY    55  54  94 S8        30.29F
$$

AZZ023-010700-
GREATER PHOENIX AREA

CITY           SKY/WX    TMP DP  RH WIND       PRES   REMARKS
PHOENIX          N/A    N/A N/A N/A MISG      29.91R THUNDER
BUCKEYE        PTCLDY    90  55  31 E13       29.86R
LUKE AFB       PTCLDY    88  62  41 E21G26    29.88R
6HR MIN TEMP:  88; 6HR MAX TEMP: 104;

DEER VALLEY    MOCLDY    82  62  50 E18G26    29.93R
6HR MIN TEMP:  81; 6HR MAX TEMP: 102;

SCOTTSDALE     MOCLDY    82  63  52 E12G21    29.96R
6HR MIN TEMP:  78; 6HR MAX TEMP: 102; 6HR PCP:  0.30;

MESA-GATEWAY   MOCLDY    75  70  83 SE17G25   29.96R
$$

AZZ027-028-010700-
SOUTHWEST MARICOPA COUNTY AND PINAL COUNTY

CITY           SKY/WX    TMP DP  RH WIND       PRES   REMARKS
CASA GRANDE    MOCLDY    75  66  73 E26G39    29.93R
6HR MIN TEMP:  75; 6HR MAX TEMP: 104; 6HR PCP:  0.23;

GILA BEND      FAIR      92  50  23 SW7       29.83R
6HR MIN TEMP:  92; 6HR MAX TEMP: 108;

$$

AZZ503-504-507>509-010700-
SOUTHEAST ARIZONA

CITY           SKY/WX    TMP DP  RH WIND       PRES   REMARKS
TUCSON         MOCLDY    80  66  62 E13       30.03S
6HR MIN TEMP:  80; 6HR MAX TEMP:  98;

DAVIS-MONTHAN  PTCLDY    76  66  70 E18G28    30.02R
6HR MIN TEMP:  76; 6HR MAX TEMP:  97; 6HR PCP:  0.03;

NOGALES        MOCLDY    68  63  84 CALM      30.11R
6HR MIN TEMP:  68; 6HR MAX TEMP:  80;

SIERRA VISTA   MOCLDY    70  60  69 N7        30.18R
6HR MIN TEMP:  70; 6HR MAX TEMP:  83;

DOUGLAS        MOCLDY    70  61  73 SE6       30.12R
6HR MIN TEMP:  69; 6HR MAX TEMP:  84;

$$

AZZ020-021-025-026-031-010700-
SOUTHWEST ARIZONA

CITY           SKY/WX    TMP DP  RH WIND       PRES   REMARKS
YUMA           PTCLDY    89  67  47 SE20      29.76R
6HR MIN TEMP:  89; 6HR MAX TEMP: 107;

$$

CAZ031-033-041-043-047-048-061-010700-
SOUTHERN CALIFORNIA

CITY           SKY/WX    TMP DP  RH WIND       PRES   REMARKS
DOWNTOWN L.A.  CLOUDY    71  63  75 CALM      29.90R
6HR MIN TEMP:  71; 6HR MAX TEMP:  79;

L.A. AIRPORT   MOCLDY    70  65  84 SW5       29.91R
6HR MIN TEMP:  70; 6HR MAX TEMP:  74;

SAN DIEGO      MOCLDY    70  61  73 SW7       29.93S
6HR MIN TEMP:  70; 6HR MAX TEMP:  74;

BURBANK        MOCLDY    70  63  78 S5        29.91R
6HR MIN TEMP:  70; 6HR MAX TEMP:  84;

ONTARIO        CLEAR     69  61  75 W7        29.91R
6HR MIN TEMP:  69; 6HR MAX TEMP:  87;

RIVERSIDE      CLEAR     70  61  73 W3        29.92R
6HR MIN TEMP:  70; 6HR MAX TEMP:  86;

PALM SPRINGS   CLEAR     90  42  18 NW13      29.77R
6HR MIN TEMP:  90; 6HR MAX TEMP: 106;

EL CENTRO NAS  CLEAR     90  24   9 W10       29.74S
6HR MIN TEMP:  88; 6HR MAX TEMP: 107;

IMPERIAL       CLEAR     92  29  10 NW5       29.72S
6HR MIN TEMP:  91; 6HR MAX TEMP: 108;

BLYTHE         CLEAR     91  58  32 S12       29.75R
6HR MIN TEMP:  91; 6HR MAX TEMP: 107;

NEEDLES        CLEAR     96  42  15 SW6       29.75R
6HR MIN TEMP:  94; 6HR MAX TEMP: 108;

$$

NVZ020-UTZ003-010700-
SOUTHERN NEVADA-UTAH

CITY           SKY/WX    TMP DP  RH WIND       PRES   REMARKS
LAS VEGAS      CLEAR     89  32  13 SW6       29.79F
6HR MIN TEMP:  89; 6HR MAX TEMP: 102;

SALT LAKE CITY MOCLDY    73  41  31 SE8       29.96S
6HR MIN TEMP:  73; 6HR MAX TEMP:  87;

$$

NMZ009-TXZ055-010700-
NEW MEXICO-WEST TEXAS

CITY           SKY/WX    TMP DP  RH WIND       PRES   REMARKS
ALBUQUERQUE    MOCLDY    75  48  38 W6        30.18R
6HR MIN TEMP:  74; 6HR MAX TEMP:  82; 6HR PCP: TRACE;

EL PASO        PTCLDY    85  42  22 W5        30.03R
6HR MIN TEMP:  84; 6HR MAX TEMP:  96;

$$


........................KEY........................
SKY/WX - SKY CONDITION/WEATHER
TMP    - TEMPERATURE IN FAHRENHEIT
DP     - DEW POINT IN FAHRENHEIT
RH     - RELATIVE HUMIDITY IN PERCENT
WIND   - DIRECTION AND SPEED IN MILES PER HOUR (MPH)
VRB    - VARIABLE WIND DIRECTION
PRES   - MEAN SEA LEVEL PRESSURE IN INCHES OF MERCURY
         F - FALLING PRESSURE   R - RISING PRESSURE
         S - STEADY PRESSURE
VSB    - VISIBILITY IN MILES
HX     - HEAT INDEX IN FAHRENHEIT
WCI    - WIND CHILL INDEX IN FAHRENHEIT
TC     - TEMPERATURE IN CELSIUS WHICH IS ALSO KNOWN AS
         TEMPERATURE IN CENTIGRADE
AFB    - AIR FORCE BASE
         LUKE AFB IS LUKE AIR FORCE BASE
         DAVIS-MONTHAN IS DAVIS-MONTHAN AIR FORCE BASE
NAS    - NAVAL AIR STATION
         EL CENTRO NAS IS EL CENTRO NAVAL AIR STATION
N/A    - NOT AVAILABLE



USA.gov is the U.S. government's official web portal to all federal, state and local government web resources and services.